Weather History for Lawrence, MA

Change the Weather History Date:

Saturday, October 15, 2011

  Actual Average Record
Temperature  
Mean Temperature 60 °F -  
Max Temperature 66 °F 63 °F 82 °F (1956)
Min Temperature 55 °F 42 °F 28 °F (1937)
Degree Days  
Heating Degree Days 4    
Growing Degree Days 10 (Base 50)    
Moisture  
Dew Point 46 °F    
Average Humidity 62    
Maximum Humidity 88    
Minimum Humidity 41    
Precipitation  
Precipitation 0.00 in - - ()
Sea Level Pressure  
Sea Level Pressure 29.51 in    
Wind  
Wind Speed 14 mph (SW)    
Max Wind Speed 23 mph    
Max Gust Speed 37 mph    
Visibility 10 miles    
Events      
Averages and records for this station are not official NWS values.
T = Trace of Precipitation, MM = Missing Value Source: NWS Daily Summary

Daily Weather History Graph

Daily Weather History Graph

Search for Another Location

Airport:

Trip Planner

Search our weather history database for the weather conditions in past years. The results will help you decide how hot, cold, wet, or windy it might be!

Date:

Astronomy

Oct. 15, 2011 Rise Set
Actual Time 6:57 AM EDT 6:02 PM EDT
Civil Twilight 6:28 AM EDT 6:31 PM EDT
Nautical Twilight 5:56 AM EDT 7:03 PM EDT
Astronomical Twilight 5:23 AM EDT 7:36 PM EDT
Moon 7:51 PM EDT (10/15) 10:24 AM EDT (10/15)
Length of Visible Light 12h 02m
Length of Day
11h 05m
Waning Gibbous, 89% of the Moon is Illuminated
Oct 15
Waning Gibbous
Oct 19
Last Quarter
Oct 26
New
Nov 2
First Quarter
Nov 10
Full

Hourly Weather History & Observations

Time (EDT) Temp. Dew Point Humidity Pressure Visibility Wind Dir Wind Speed Gust Speed Precip Events Conditions
12:15 AM 64.4 °F 59.0 °F 83% 29.31 in 10.0 mi SSW 12.7 mph 21.9 mph N/A   Mostly Cloudy
12:29 AM 62.6 °F 59.0 °F 88% 29.32 in 10.0 mi SSW 10.4 mph 21.9 mph N/A   Scattered Clouds
12:54 AM 63.0 °F 57.9 °F 84% 29.33 in 10.0 mi SSW 15.0 mph 19.6 mph N/A   Mostly Cloudy
1:13 AM 62.6 °F 55.4 °F 77% 29.35 in 10.0 mi WSW 23.0 mph 32.2 mph N/A   Mostly Cloudy
1:20 AM 62.6 °F 53.6 °F 72% 29.36 in 10.0 mi WSW 20.7 mph 31.1 mph N/A   Mostly Cloudy
1:54 AM 60.1 °F 52.0 °F 75% 29.39 in 10.0 mi SW 18.4 mph 21.9 mph N/A   Mostly Cloudy
2:54 AM 57.9 °F 48.9 °F 72% 29.42 in 10.0 mi SW 12.7 mph 20.7 mph N/A   Clear
3:54 AM 57.9 °F 50.0 °F 75% 29.44 in 10.0 mi SW 11.5 mph - N/A   Mostly Cloudy
4:22 AM 57.2 °F 48.2 °F 72% 29.45 in 10.0 mi SW 11.5 mph 23.0 mph N/A   Overcast
4:40 AM 57.2 °F 48.2 °F 72% 29.46 in 10.0 mi SW 11.5 mph 24.2 mph N/A   Overcast
4:54 AM 57.2 °F 48.2 °F 72% 29.47 in 10.0 mi SW 11.5 mph 24.2 mph N/A   Mostly Cloudy
5:54 AM 55.9 °F 46.0 °F 69% 29.49 in 10.0 mi SW 12.7 mph 24.2 mph N/A   Clear
6:54 AM 55.0 °F 45.0 °F 69% 29.52 in 10.0 mi SW 11.5 mph 19.6 mph N/A   Clear
7:54 AM 55.0 °F 45.0 °F 69% 29.55 in 10.0 mi SSW 10.4 mph - N/A   Clear
8:54 AM 57.2 °F 46.4 °F 67% 29.56 in 10.0 mi SW 11.5 mph - N/A   Clear
9:54 AM 60.1 °F 45.0 °F 57% 29.57 in 10.0 mi SW 11.5 mph 24.2 mph N/A   Clear
10:54 AM 62.1 °F 45.0 °F 53% 29.57 in 10.0 mi SW 21.9 mph 32.2 mph N/A   Clear
11:54 AM 63.0 °F 43.0 °F 48% 29.57 in 10.0 mi SW 23.0 mph 36.8 mph N/A   Scattered Clouds
12:54 PM 66.0 °F 43.0 °F 43% 29.55 in 10.0 mi SW 16.1 mph 27.6 mph N/A   Clear
1:54 PM 64.9 °F 42.1 °F 43% 29.53 in 10.0 mi SW 13.8 mph 26.5 mph N/A   Scattered Clouds
2:54 PM 64.0 °F 39.9 °F 41% 29.53 in 10.0 mi West 17.3 mph 34.5 mph N/A   Mostly Cloudy
3:54 PM 57.9 °F 44.1 °F 60% 29.55 in 10.0 mi SW 13.8 mph 23.0 mph 0.00 in   Overcast
4:54 PM 60.1 °F 45.0 °F 57% 29.57 in 10.0 mi WSW 15.0 mph 20.7 mph N/A   Mostly Cloudy
5:54 PM 59.0 °F 42.8 °F 55% 29.57 in 10.0 mi SW 11.5 mph - N/A   Scattered Clouds
6:54 PM 59.0 °F 39.9 °F 49% 29.60 in 10.0 mi SW 16.1 mph 24.2 mph N/A   Clear
7:54 PM 57.9 °F 39.0 °F 49% 29.62 in 10.0 mi SW 11.5 mph 21.9 mph N/A   Clear
8:54 PM 57.9 °F 37.9 °F 47% 29.62 in 10.0 mi SW 15.0 mph 25.3 mph N/A   Clear
9:54 PM 57.9 °F 37.9 °F 47% 29.63 in 10.0 mi SW 15.0 mph 23.0 mph N/A   Clear
10:54 PM 57.9 °F 37.0 °F 46% 29.64 in 10.0 mi SW 16.1 mph 25.3 mph N/A   Clear
11:54 PM 57.9 °F 36.0 °F 44% 29.65 in 10.0 mi SW 18.4 mph 27.6 mph N/A   Clear